User: anonymous   Login
Location: Unspecified
(0.0000°N, 0.0000°E)
Time: 03:50:45
(UTC+02:00)
Language:

Iridium 15 - Orbit

View from above orbital plane
View from above orbital plane
View from above satellite
View from above satellite

Ground track
Ground track

The orbit data is extracted from the following two-line orbital elements,

1 24869U 97034A   15181.46469285  .00000123  00000-0  36936-4 0  9999
2 24869 086.3965 321.8139 0002238 092.6394 331.4097 14.34216669941040
Epoch (UTC): 30 June 2015 11:09:09
Eccentricity: 0.0002238
inclination: 86.3965°
perigee height: 776 km
apogee height: 779 km
right ascension of ascending node: 321.8139°
argument of perigee: 92.6394°
revolutions per day: 14.34216669
mean anomaly at epoch: 331.4097°
orbit number at epoch: 94104

The dashed part of the orbit path shows where the satellite is in the earth's shadow,  

DLR